User: anonymous   Login
Location: Unspecified
(0.0000°N, 0.0000°E)
Time: 13:26:42
(UTC+00:00)
Language:

AALTO-2 - Orbit

View from above orbital plane
View from above orbital plane
View from above satellite
View from above satellite

Ground track
Ground track

The orbit data is extracted from the following two-line orbital elements,

1 42729U 98067MJ  18347.73044510  .00123109  16681-4  40028-3 0  9990
2 42729  51.6268 147.4909 0004687 223.0263 234.1683 15.90532983 88728
Epoch (UTC): 13 December 2018 17:31:50
Eccentricity: 0.0004687
inclination: 51.6268°
perigee height: 297 km
apogee height: 304 km
right ascension of ascending node: 147.4909°
argument of perigee: 223.0263°
revolutions per day: 15.90532983
mean anomaly at epoch: 234.1683°
orbit number at epoch: 8872

The dashed part of the orbit path shows where the satellite is in the earth's shadow,  

DLR